Location: Unspecified
(29.9680°N, 0.0000°E)
Time: 04:08:08
(UTC+00:00)

Vanguard 1 Rocket - All Passes

Search period start: 18 June 2019 00:00
Search period end: 28 June 2019 00:00
Orbit: 652 x 4224 km, 34.3° (Epoch: 17 June)

Date Brightness Start Highest point End Pass type
(mag) Time Alt. Az. Time Alt. Az. Time Alt. Az.
18 Jun - 12:39:20 10° SSE 12:41:09 10° SE 12:42:54 10° SE daylight
18 Jun - 14:53:36 10° SSW 15:12:43 35° SSE 15:24:27 10° E daylight
18 Jun - 17:24:02 10° WSW 17:41:51 74° SSE 17:50:36 10° ENE daylight
18 Jun - 19:57:41 10° W 20:08:54 66° N 20:14:50 10° ENE visible
18 Jun - 22:28:16 10° WNW 22:34:48 80° NNE 22:39:17 10° ESE visible
19 Jun - 00:55:56 10° W 00:59:10 19° SSW 01:02:29 10° SSE night (unlit)
19 Jun - 13:41:18 10° S 13:58:44 25° SE 14:11:08 10° E daylight
19 Jun - 16:08:46 10° SW 16:29:02 58° SSE 16:39:39 10° ENE daylight
19 Jun - 18:42:14 10° WSW 18:57:03 79° NNW 19:04:20 10° ENE daylight
19 Jun - 21:15:03 10° WNW 21:23:37 65° N 21:28:38 10° E visible
19 Jun - 23:43:37 10° W 23:48:33 41° SSW 23:52:41 10° SE visible
20 Jun - 12:31:45 10° S 12:44:18 16° SE 12:54:47 10° ESE daylight
20 Jun - 14:54:20 10° SSW 15:15:34 45° SSE 15:28:03 10° E daylight
20 Jun - 17:26:17 10° WSW 17:44:45 85° SSE 17:53:43 10° ENE daylight
20 Jun - 20:00:38 10° W 20:12:02 65° N 20:18:03 10° E visible
20 Jun - 22:31:11 10° WNW 22:37:52 79° SSW 22:42:22 10° ESE visible
21 Jun - 01:00:31 10° WSW 01:02:01 11° SW 01:03:30 10° SSW night (unlit)
21 Jun - 13:41:10 10° SSW 14:01:32 33° SE 14:15:23 10° E daylight
21 Jun - 16:10:30 10° SW 16:31:51 69° SSE 16:42:48 10° ENE daylight
21 Jun - 18:45:03 10° W 19:00:05 73° NNW 19:07:28 10° ENE daylight
21 Jun - 21:17:57 10° WNW 21:26:47 74° NNE 21:31:51 10° E visible
21 Jun - 23:46:55 10° W 23:51:24 27° SW 23:55:09 10° SSE visible
22 Jun - 12:29:58 10° S 12:47:08 23° SE 13:00:46 10° E daylight
22 Jun - 14:55:29 10° SW 15:18:18 54° SSE 15:31:24 10° ENE daylight
22 Jun - 17:28:46 10° WSW 17:47:39 86° NNW 17:56:49 10° ENE daylight
22 Jun - 20:03:33 10° W 20:15:12 67° N 20:21:16 10° E visible
22 Jun - 22:34:08 10° WNW 22:40:49 58° SSW 22:45:18 10° SE visible
23 Jun - 11:23:12 10° SSE 11:32:29 13° SE 11:41:04 10° ESE daylight
23 Jun - 13:41:41 10° SSW 14:04:12 41° SE 14:19:08 10° E daylight
23 Jun - 16:12:30 10° WSW 16:34:38 79° SSE 16:45:55 10° ENE daylight
23 Jun - 18:47:54 10° W 19:03:09 70° N 19:10:39 10° ENE daylight
23 Jun - 21:20:49 10° WNW 21:29:52 88° NNE 21:35:02 10° ESE visible
23 Jun - 23:50:34 10° W 23:54:07 18° SW 23:57:11 10° S visible
24 Jun - 12:29:31 10° SSW 12:49:46 30° SE 13:05:25 10° E daylight
24 Jun - 14:56:58 10° SW 15:20:58 64° SSE 15:34:35 10° ENE daylight
24 Jun - 17:31:24 10° WSW 17:50:34 79° NNW 17:59:56 10° ENE daylight
24 Jun - 20:06:25 10° WNW 20:18:21 72° N 20:24:30 10° E visible
24 Jun - 22:37:09 10° WNW 22:43:40 41° SSW 22:48:04 10° SE visible
25 Jun - 11:19:58 10° S 11:35:13 19° SE 11:48:48 10° E daylight
25 Jun - 13:42:39 10° SW 14:06:46 50° SSE 14:22:33 10° ENE daylight
25 Jun - 16:14:46 10° WSW 16:37:25 88° SSE 16:48:59 10° ENE daylight
25 Jun - 18:50:47 10° W 19:06:16 70° N 19:13:52 10° E daylight
25 Jun - 21:23:38 10° WNW 21:32:52 75° SSW 21:38:05 10° ESE visible
25 Jun - 23:55:22 10° WSW 23:56:44 11° SW 23:58:01 10° SSW visible
26 Jun - 12:29:50 10° SSW 12:52:14 37° SE 13:09:22 10° E daylight
26 Jun - 14:58:47 10° SW 15:23:36 74° SSE 15:37:40 10° ENE daylight
26 Jun - 17:34:10 10° W 17:53:34 75° N 18:03:04 10° ENE daylight
26 Jun - 20:09:14 10° WNW 20:21:27 81° NNE 20:27:43 10° ESE visible
26 Jun - 22:40:21 10° W 22:46:21 29° SW 22:50:32 10° SSE visible
27 Jun - 11:19:00 10° S 11:37:40 26° SE 11:54:10 10° E daylight
27 Jun - 13:44:00 10° SW 14:09:15 60° SSE 14:25:45 10° ENE daylight
27 Jun - 16:17:14 10° WSW 16:40:15 85° NNW 16:52:04 10° ENE daylight
27 Jun - 18:53:38 10° W 19:09:23 72° N 19:17:05 10° E daylight
27 Jun - 21:26:28 10° WNW 21:35:44 58° SSW 21:41:01 10° SE visible
